Glenwood, MN

4:50 AM CDT on May 23, 2017 (GMT -0500)
Glenwood Municipal

Weather History for KGHW - January, 2013

Change the Weather History Date:

Thursday, January 17, 2013

  Actual Average Record
Temperature  
Mean Temperature 6 °F -  
Max Temperature 15 °F 21 °F 44 °F (1973)
Min Temperature -2 °F 1 °F -32 °F (1954)
Degree Days  
Heating Degree Days 58    
Moisture  
Dew Point 1 °F    
Average Humidity 74    
Maximum Humidity 85    
Minimum Humidity 61    
Precipitation  
Precipitation 0.00 in - - ()
Sea Level Pressure  
Sea Level Pressure 30.29 in    
Wind  
Wind Speed 8 mph (WSW)    
Max Wind Speed 14 mph    
Max Gust Speed -    
Visibility 10 miles    
Events Snow    
Averages and records for this station are not official NWS values.
T = Trace of Precipitation, MM = Missing Value Source: NWS Daily Summary

Daily Weather History Graph

Daily Weather History Graph

Search for Another Location

Airport or City:

Trip Planner

Search our weather history database for the weather conditions in past years. The results will help you decide how hot, cold, wet, or windy it might be!

Date:

Astronomy

Jan. 17, 2013 Rise Set
Actual Time 7:56 AM CST 5:06 PM CST
Civil Twilight 7:23 AM CST 5:39 PM CST
Nautical Twilight 6:46 AM CST 6:16 PM CST
Astronomical Twilight 6:11 AM CST 6:52 PM CST
Moon 10:41 AM CST (1/17) No Moon Set
Length of Visible Light 10h 16m
Length of Day
9h 10m
Waxing Crescent, 38% of the Moon is Illuminated
Jan 17
Waxing Crescent
Jan 18
First Quarter
Jan 26
Full
Feb 3
Last Quarter
Feb 10
New

Hourly Weather History & Observations

Time (CST) Temp. Windchill Dew Point Humidity Pressure Visibility Wind Dir Wind Speed Gust Speed Precip Events Conditions
12:14 AM -2.2 °F -16.8 °F -9.4 °F 71% 30.25 in 10.0 mi NNW 8.1 mph - N/A   Scattered Clouds
12:33 AM -2.2 °F -18.9 °F -9.4 °F 71% 30.24 in 10.0 mi North 10.4 mph - N/A   Clear
12:53 AM -2.2 °F -19.9 °F -9.4 °F 71% 30.24 in 10.0 mi North 11.5 mph - N/A   Mostly Cloudy
1:14 AM -0.4 °F -14.7 °F -9.4 °F 66% 30.24 in 10.0 mi NNW 8.1 mph - N/A   Overcast
1:33 AM -0.4 °F -16.7 °F -9.4 °F 66% 30.25 in 10.0 mi North 10.4 mph - N/A   Overcast
1:53 AM -0.4 °F -14.7 °F -9.4 °F 66% 30.25 in 10.0 mi North 8.1 mph - N/A   Overcast
2:14 AM 1.4 °F -9.9 °F -9.4 °F 61% 30.27 in 10.0 mi NNW 5.8 mph - N/A   Overcast
2:33 AM 1.4 °F -6.2 °F -9.4 °F 61% 30.28 in 10.0 mi NNW 3.5 mph - N/A   Overcast
2:53 AM 1.4 °F -6.2 °F -9.4 °F 61% 30.28 in 10.0 mi West 3.5 mph - N/A   Overcast
3:14 AM 1.4 °F -12.5 °F -7.6 °F 66% 30.29 in 10.0 mi WSW 8.1 mph - N/A   Overcast
3:33 AM 1.4 °F -12.5 °F -7.6 °F 66% 30.30 in 10.0 mi West 8.1 mph - N/A   Overcast
3:53 AM 1.4 °F -11.3 °F -7.6 °F 66% 30.30 in 10.0 mi West 6.9 mph - N/A   Overcast
4:14 AM 1.4 °F -11.3 °F -7.6 °F 66% 30.29 in 10.0 mi WSW 6.9 mph - N/A   Overcast
4:33 AM 1.4 °F -15.3 °F -5.8 °F 72% 30.29 in 10.0 mi SW 11.5 mph - N/A   Overcast
5:14 AM -0.4 °F -10.4 °F -7.6 °F 72% 30.29 in 10.0 mi SW 4.6 mph - N/A   Mostly Cloudy
5:33 AM -0.4 °F -14.7 °F -7.6 °F 72% 30.29 in 10.0 mi SW 8.1 mph - N/A   Scattered Clouds
5:53 AM -0.4 °F -17.6 °F -7.6 °F 72% 30.29 in 10.0 mi SW 11.5 mph - N/A   Mostly Cloudy
6:13 AM -0.4 °F -14.7 °F -7.6 °F 72% 30.29 in 10.0 mi WSW 8.1 mph - N/A   Overcast
6:33 AM 1.4 °F -8.3 °F -7.6 °F 66% 30.29 in 10.0 mi SW 4.6 mph - N/A   Overcast
6:53 AM 1.4 °F -11.3 °F -9.4 °F 61% 30.28 in 10.0 mi WSW 6.9 mph - N/A   Overcast
7:13 AM 1.4 °F -12.5 °F -9.4 °F 61% 30.28 in 10.0 mi SW 8.1 mph - N/A Snow Light Snow
7:33 AM 3.2 °F -11.3 °F -7.6 °F 61% 30.29 in 10.0 mi SW 9.2 mph - N/A Snow Light Snow
7:54 AM 3.2 °F -7.8 °F -5.8 °F 66% 30.29 in 10.0 mi SSW 5.8 mph - N/A   Overcast
8:13 AM 3.2 °F -7.8 °F -5.8 °F 66% 30.29 in 10.0 mi SSW 5.8 mph - N/A   Overcast
8:33 AM 5.0 °F -6.9 °F -2.2 °F 72% 30.30 in 10.0 mi SW 6.9 mph - N/A Snow Light Snow
8:53 AM 6.8 °F -5.9 °F -2.2 °F 67% 30.30 in 10.0 mi SW 8.1 mph - N/A   Overcast
9:13 AM 6.8 °F -6.9 °F -0.4 °F 72% 30.31 in 7.0 mi SW 9.2 mph - N/A Snow Light Snow
9:33 AM 6.8 °F -6.9 °F -0.4 °F 72% 30.32 in 10.0 mi WSW 9.2 mph - N/A Snow Light Snow
9:53 AM 6.8 °F -7.8 °F -0.4 °F 72% 30.33 in 10.0 mi WSW 10.4 mph - N/A Snow Light Snow
10:13 AM 8.6 °F -4.7 °F 1.4 °F 73% 30.33 in 10.0 mi WSW 9.2 mph - N/A   Scattered Clouds
10:33 AM 8.6 °F -5.5 °F 1.4 °F 73% 30.34 in 10.0 mi SW 10.4 mph - N/A   Clear
10:53 AM 10.4 °F -2.4 °F 1.4 °F 67% 30.33 in 10.0 mi SW 9.2 mph - N/A   Clear
11:13 AM 10.4 °F -1.5 °F 3.2 °F 73% 30.34 in 10.0 mi WSW 8.1 mph - N/A   Clear
11:34 AM 12.2 °F -1.0 °F 5.0 °F 73% 30.34 in 10.0 mi West 10.4 mph - N/A   Scattered Clouds
11:53 AM 12.2 °F -1.0 °F 6.8 °F 79% 30.34 in 10.0 mi West 10.4 mph - N/A   Scattered Clouds
12:13 PM 14.0 °F 2.0 °F 6.8 °F 73% 30.33 in 10.0 mi West 9.2 mph - N/A   Mostly Cloudy
12:53 PM 15.8 °F 2.1 °F 8.6 °F 73% 30.32 in 10.0 mi WNW 12.7 mph - N/A   Scattered Clouds
1:13 PM 15.8 °F 2.7 °F 8.6 °F 73% 30.33 in 10.0 mi West 11.5 mph - N/A   Clear
1:34 PM 15.8 °F 4.2 °F 8.6 °F 73% 30.32 in 10.0 mi West 9.2 mph - N/A   Clear
1:53 PM 15.8 °F 1.4 °F 6.8 °F 68% 30.32 in 7.0 mi WNW 13.8 mph - N/A   Clear
2:13 PM 15.8 °F 2.1 °F 6.8 °F 68% 30.32 in 10.0 mi WNW 12.7 mph - N/A   Clear
2:34 PM 15.8 °F 3.4 °F 6.8 °F 68% 30.32 in 10.0 mi WNW 10.4 mph - N/A   Clear
2:53 PM 14.0 °F 2.0 °F 6.8 °F 73% 30.32 in 10.0 mi WNW 9.2 mph - N/A   Clear
3:13 PM 12.2 °F 0.7 °F 5.0 °F 73% 30.32 in 10.0 mi West 8.1 mph - N/A   Clear
3:34 PM 12.2 °F -0.2 °F 5.0 °F 73% 30.33 in 10.0 mi West 9.2 mph - N/A   Clear
3:53 PM 12.2 °F 0.7 °F 5.0 °F 73% 30.33 in 10.0 mi West 8.1 mph - N/A   Clear
4:13 PM 10.4 °F -0.4 °F 5.0 °F 79% 30.33 in 10.0 mi West 6.9 mph - N/A   Clear
4:34 PM 10.4 °F 0.8 °F 5.0 °F 79% 30.33 in 10.0 mi West 5.8 mph - N/A   Clear
4:53 PM 10.4 °F -0.4 °F 5.0 °F 79% 30.33 in 10.0 mi West 6.9 mph - N/A   Clear
5:13 PM 10.4 °F 0.8 °F 5.0 °F 79% 30.34 in 10.0 mi West 5.8 mph - N/A   Scattered Clouds
5:34 PM 10.4 °F -0.4 °F 5.0 °F 79% 30.34 in 10.0 mi West 6.9 mph - N/A   Scattered Clouds
5:53 PM 10.4 °F 0.8 °F 6.8 °F 85% 30.32 in 10.0 mi West 5.8 mph - N/A   Mostly Cloudy
6:13 PM 10.4 °F -0.4 °F 6.8 °F 85% 30.32 in 10.0 mi WSW 6.9 mph - N/A   Overcast
6:53 PM 10.4 °F 0.8 °F 5.0 °F 79% 30.31 in 10.0 mi WSW 5.8 mph - N/A   Overcast
7:13 PM 10.4 °F -0.4 °F 6.8 °F 85% 30.31 in 10.0 mi WSW 6.9 mph - N/A   Overcast
7:33 PM 10.4 °F 4.0 °F 6.8 °F 85% 30.31 in 10.0 mi West 3.5 mph - N/A   Overcast
7:53 PM 10.4 °F 2.2 °F 6.8 °F 85% 30.31 in 10.0 mi WSW 4.6 mph - N/A   Overcast
8:14 PM 10.4 °F 4.0 °F 6.8 °F 85% 30.30 in 10.0 mi WSW 3.5 mph - N/A   Overcast
8:53 PM 10.4 °F - 6.8 °F 85% 30.28 in 10.0 mi Calm Calm - N/A   Overcast
9:14 PM 10.4 °F 4.0 °F 6.8 °F 85% 30.27 in 10.0 mi SSW 3.5 mph - N/A   Overcast
9:33 PM 10.4 °F - 6.8 °F 85% 30.26 in 10.0 mi Calm Calm - N/A   Overcast
9:53 PM 10.4 °F 2.2 °F 6.8 °F 85% 30.25 in 10.0 mi South 4.6 mph - N/A   Overcast
10:14 PM 12.2 °F 6.1 °F 6.8 °F 79% 30.23 in 10.0 mi SE 3.5 mph - N/A   Overcast
10:33 PM 12.2 °F 4.3 °F 8.6 °F 85% 30.22 in 10.0 mi ESE 4.6 mph - N/A Snow Light Snow
10:53 PM 12.2 °F 2.9 °F 8.6 °F 85% 30.21 in 10.0 mi SE 5.8 mph - N/A Snow Light Snow
11:14 PM 12.2 °F 1.7 °F 8.6 °F 85% 30.20 in 7.0 mi ESE 6.9 mph - N/A Snow Light Snow
11:33 PM 12.2 °F 1.7 °F 8.6 °F 85% 30.18 in 7.0 mi ESE 6.9 mph - N/A Snow Light Snow
11:53 PM 12.2 °F 0.7 °F 8.6 °F 85% 30.17 in 5.0 mi SE 8.1 mph - N/A Snow Light Snow